RYR242N EDDC-EDDH

Flight info

Callsign RYR242N
Flight time 0h 48m
Altitude 28000
Route OSKAN9E OSKAN M748 RARUP RARUP6A
Aircraft B738/M-SDE2E3FGHIRWXY/LB1

Departure

Time 2026-05-06 15:34
Airport Dresden Airport (EDDC)

Arrival

Time 2026-05-06 16:23
Airport Hamburg Helmut Schmidt Airport (EDDH)
Time Latitude Longitude Altitude Speed Heading
2026-05-06 15:21 51.12487 13.76102 755 ft 0 kts 311°
2026-05-06 15:29 51.12501 13.76077 754 ft 6 kts 311°
2026-05-06 15:30 51.12511 13.76018 753 ft 5 kts 244°
2026-05-06 15:30 51.12484 13.75971 753 ft 6 kts 223°
2026-05-06 15:30 51.12447 13.75919 754 ft 5 kts 221°
2026-05-06 15:30 51.12419 13.75881 754 ft 7 kts 221°
2026-05-06 15:31 51.12371 13.75780 752 ft 11 kts 267°
2026-05-06 15:31 51.12387 13.75691 750 ft 0 kts 292°
2026-05-06 15:33 51.12401 13.75638 749 ft 10 kts 293°
2026-05-06 15:33 51.12442 13.75536 747 ft 10 kts 309°
2026-05-06 15:33 51.12493 13.75518 747 ft 5 kts 18°
2026-05-06 15:34 51.12513 13.75535 747 ft 4 kts 37°
2026-05-06 15:34 51.12769 13.75884 748 ft 93 kts 41°
2026-05-06 15:34 51.13483 13.76865 756 ft 169 kts 41°
2026-05-06 15:34 51.14349 13.78107 1519 ft 166 kts 42°
2026-05-06 15:35 51.15275 13.79398 2006 ft 192 kts 39°
2026-05-06 15:35 51.16369 13.80780 2648 ft 219 kts 40°
2026-05-06 15:35 51.17580 13.82542 3219 ft 254 kts 42°
2026-05-06 15:35 51.18909 13.84443 4466 ft 260 kts 41°
2026-05-06 15:36 51.20423 13.85970 5564 ft 269 kts 20°
2026-05-06 15:36 51.22234 13.86485 6759 ft 273 kts 359°
2026-05-06 15:36 51.24084 13.85925 7890 ft 278 kts 340°
2026-05-06 15:36 51.25915 13.85028 8999 ft 282 kts 346°
2026-05-06 15:37 51.27801 13.84309 10061 ft 286 kts 347°
2026-05-06 15:37 51.29774 13.83598 10629 ft 310 kts 348°
2026-05-06 15:37 51.31971 13.82587 10895 ft 341 kts 333°
2026-05-06 15:37 51.33867 13.80444 12085 ft 341 kts 317°
2026-05-06 15:38 51.35506 13.77743 13052 ft 346 kts 317°
2026-05-06 15:38 51.37315 13.75133 14010 ft 351 kts 319°
2026-05-06 15:38 51.39142 13.72560 14942 ft 356 kts 319°
2026-05-06 15:38 51.40995 13.69951 15836 ft 361 kts 319°
2026-05-06 15:39 51.42893 13.67274 16706 ft 366 kts 319°
2026-05-06 15:39 51.44780 13.64611 17531 ft 371 kts 319°
2026-05-06 15:39 51.46729 13.61856 18343 ft 376 kts 319°
2026-05-06 15:39 51.48706 13.59061 19132 ft 380 kts 319°
2026-05-06 15:40 51.50666 13.56288 19883 ft 385 kts 319°
2026-05-06 15:40 51.52691 13.53418 20630 ft 389 kts 319°
2026-05-06 15:40 51.54704 13.50563 21341 ft 393 kts 319°
2026-05-06 15:40 51.56753 13.47650 22034 ft 397 kts 319°
2026-05-06 15:41 51.58835 13.44689 22705 ft 401 kts 319°
2026-05-06 15:41 51.60926 13.41712 23355 ft 405 kts 319°
2026-05-06 15:41 51.63025 13.38718 23982 ft 409 kts 319°
2026-05-06 15:41 51.65154 13.35678 24591 ft 413 kts 319°
2026-05-06 15:42 51.67311 13.32591 25183 ft 417 kts 318°
2026-05-06 15:42 51.69468 13.29498 25757 ft 421 kts 318°
2026-05-06 15:42 51.71637 13.26383 26318 ft 425 kts 318°
2026-05-06 15:42 51.73844 13.23210 26875 ft 428 kts 318°
2026-05-06 15:43 51.76089 13.19978 27414 ft 432 kts 318°
2026-05-06 15:43 51.78329 13.16748 27926 ft 433 kts 318°
2026-05-06 15:43 51.80562 13.13525 28091 ft 439 kts 318°
2026-05-06 15:43 51.82846 13.10226 28134 ft 452 kts 318°
2026-05-06 15:44 51.87545 13.03420 28123 ft 453 kts 318°
2026-05-06 15:44 51.92208 12.96649 28092 ft 450 kts 318°
2026-05-06 15:45 51.96847 12.89892 28091 ft 451 kts 318°
2026-05-06 15:45 52.01494 12.83105 28091 ft 451 kts 318°
2026-05-06 15:46 52.06137 12.76302 28091 ft 451 kts 318°
2026-05-06 15:46 52.10771 12.69494 28091 ft 451 kts 318°
2026-05-06 15:47 52.15403 12.62668 28091 ft 451 kts 318°
2026-05-06 15:47 52.20055 12.55794 28091 ft 451 kts 318°
2026-05-06 15:48 52.24696 12.48914 28091 ft 451 kts 318°
2026-05-06 15:48 52.29060 12.41657 28094 ft 451 kts 314°
2026-05-06 15:49 52.33374 12.34319 28076 ft 451 kts 317°
2026-05-06 15:49 52.38043 12.27509 28092 ft 451 kts 318°
2026-05-06 15:50 52.42724 12.20759 28091 ft 451 kts 318°
2026-05-06 15:50 52.47444 12.13938 28091 ft 451 kts 318°
2026-05-06 15:51 52.52128 12.07149 28091 ft 451 kts 318°
2026-05-06 15:51 52.56811 12.00341 28091 ft 451 kts 318°
2026-05-06 15:52 52.61487 11.93523 28091 ft 451 kts 318°
2026-05-06 15:52 52.66335 11.86997 28102 ft 451 kts 322°
2026-05-06 15:53 52.71283 11.80741 28091 ft 451 kts 322°
2026-05-06 15:53 52.76238 11.74455 28091 ft 451 kts 322°
2026-05-06 15:54 52.78692 11.71336 27746 ft 445 kts 322°
2026-05-06 15:54 52.81139 11.68220 27288 ft 437 kts 322°
2026-05-06 15:54 52.83491 11.65222 26834 ft 428 kts 322°
2026-05-06 15:54 52.85818 11.62250 26392 ft 422 kts 322°
2026-05-06 15:55 52.88122 11.59304 25958 ft 419 kts 322°
2026-05-06 15:55 52.90437 11.56340 25515 ft 419 kts 322°
2026-05-06 15:55 52.92716 11.53419 25064 ft 418 kts 322°
2026-05-06 15:55 52.95016 11.50467 24598 ft 415 kts 322°
2026-05-06 15:56 52.97259 11.47586 24143 ft 412 kts 322°
2026-05-06 15:56 52.99522 11.44676 23686 ft 408 kts 322°
2026-05-06 15:56 53.01747 11.41809 23240 ft 405 kts 322°
2026-05-06 15:56 53.03957 11.38958 22799 ft 402 kts 322°
2026-05-06 15:57 53.06153 11.36131 22356 ft 400 kts 323°
2026-05-06 15:57 53.08344 11.33316 21916 ft 397 kts 322°
2026-05-06 15:57 53.10496 11.30547 21484 ft 395 kts 322°
2026-05-06 15:57 53.12700 11.27822 21039 ft 392 kts 325°
2026-05-06 15:58 53.14910 11.25266 20615 ft 389 kts 325°
2026-05-06 15:58 53.17141 11.22692 20180 ft 387 kts 325°
2026-05-06 15:58 53.19333 11.20163 19754 ft 384 kts 325°
2026-05-06 15:58 53.21506 11.17652 19331 ft 382 kts 325°
2026-05-06 15:59 53.23676 11.15142 18910 ft 379 kts 325°
2026-05-06 15:59 53.25844 11.12631 18489 ft 377 kts 325°
2026-05-06 15:59 53.27976 11.10159 18075 ft 375 kts 325°
2026-05-06 15:59 53.30106 11.07686 17662 ft 372 kts 325°
2026-05-06 16:00 53.32208 11.05241 17255 ft 370 kts 325°
2026-05-06 16:00 53.34312 11.02792 16847 ft 368 kts 325°
2026-05-06 16:00 53.36393 11.00367 16444 ft 366 kts 325°
2026-05-06 16:00 53.38467 10.97948 16042 ft 363 kts 325°
2026-05-06 16:01 53.40517 10.95553 15645 ft 361 kts 325°
2026-05-06 16:01 53.42557 10.93167 15250 ft 359 kts 325°
2026-05-06 16:01 53.44601 10.90773 14854 ft 357 kts 325°
2026-05-06 16:01 53.46621 10.88405 14463 ft 355 kts 325°
2026-05-06 16:02 53.48649 10.86025 14071 ft 353 kts 325°
2026-05-06 16:02 53.50641 10.83684 13686 ft 351 kts 325°
2026-05-06 16:02 53.52622 10.81353 13302 ft 349 kts 325°
2026-05-06 16:02 53.54592 10.79032 12921 ft 347 kts 325°
2026-05-06 16:03 53.56555 10.76718 12542 ft 345 kts 325°
2026-05-06 16:03 53.58517 10.74401 12156 ft 343 kts 325°
2026-05-06 16:03 53.60305 10.71858 11903 ft 339 kts 311°
2026-05-06 16:03 53.61568 10.68504 11768 ft 338 kts 294°
2026-05-06 16:04 53.62213 10.64744 11724 ft 339 kts 282°
2026-05-06 16:04 53.62666 10.60841 11650 ft 341 kts 276°
2026-05-06 16:04 53.62519 10.56840 11568 ft 340 kts 258°
2026-05-06 16:04 53.61689 10.53152 11512 ft 339 kts 242°
2026-05-06 16:05 53.60749 10.49505 11471 ft 339 kts 251°
2026-05-06 16:05 53.60012 10.45755 11433 ft 340 kts 252°
2026-05-06 16:05 53.59286 10.41958 11382 ft 339 kts 252°
2026-05-06 16:05 53.58563 10.38183 11337 ft 339 kts 252°
2026-05-06 16:06 53.57850 10.34469 11296 ft 339 kts 252°
2026-05-06 16:06 53.57124 10.30698 11259 ft 338 kts 252°
2026-05-06 16:06 53.56403 10.26951 11225 ft 338 kts 252°
2026-05-06 16:06 53.55675 10.23186 11195 ft 338 kts 252°
2026-05-06 16:07 53.54951 10.19446 11162 ft 333 kts 252°
2026-05-06 16:07 53.54253 10.15840 11104 ft 317 kts 252°
2026-05-06 16:07 53.53583 10.12393 11012 ft 303 kts 252°
2026-05-06 16:07 53.52944 10.09110 10942 ft 290 kts 252°
2026-05-06 16:08 53.52335 10.05983 10909 ft 276 kts 252°
2026-05-06 16:08 53.51752 10.02998 10909 ft 262 kts 252°
2026-05-06 16:08 53.51192 10.00136 10942 ft 250 kts 252°
2026-05-06 16:08 53.50657 9.97398 11049 ft 252 kts 252°
2026-05-06 16:09 53.49976 9.94668 11069 ft 258 kts 238°
2026-05-06 16:09 53.48918 9.92234 11083 ft 259 kts 231°
2026-05-06 16:09 53.47781 9.89890 11087 ft 258 kts 230°
2026-05-06 16:09 53.46625 9.87555 10830 ft 266 kts 230°
2026-05-06 16:10 53.45441 9.85174 10276 ft 268 kts 230°
2026-05-06 16:10 53.44266 9.82815 9736 ft 261 kts 230°
2026-05-06 16:10 53.43120 9.80516 9192 ft 256 kts 230°
2026-05-06 16:10 53.41987 9.78245 8631 ft 253 kts 230°
2026-05-06 16:11 53.40897 9.76063 8619 ft 238 kts 230°
2026-05-06 16:11 53.39809 9.73887 8171 ft 250 kts 230°
2026-05-06 16:11 53.38701 9.71673 7653 ft 249 kts 230°
2026-05-06 16:11 53.37602 9.69478 7123 ft 245 kts 230°
2026-05-06 16:12 53.36966 9.68210 6814 ft 243 kts 230°
2026-05-06 16:12 53.35893 9.66071 6288 ft 241 kts 230°
2026-05-06 16:12 53.34834 9.63961 5765 ft 238 kts 230°
2026-05-06 16:12 53.33845 9.61993 5274 ft 236 kts 230°
2026-05-06 16:13 53.32840 9.59993 5125 ft 227 kts 230°
2026-05-06 16:13 53.31883 9.58092 5101 ft 232 kts 230°
2026-05-06 16:13 53.30896 9.55933 5084 ft 235 kts 243°
2026-05-06 16:13 53.30463 9.53328 5106 ft 236 kts 268°
2026-05-06 16:14 53.30703 9.50671 5100 ft 236 kts 290°
2026-05-06 16:14 53.31522 9.48288 5093 ft 236 kts 312°
2026-05-06 16:14 53.32733 9.46494 5085 ft 236 kts 330°
2026-05-06 16:14 53.34288 9.45646 5104 ft 235 kts 355°
2026-05-06 16:15 53.35894 9.45950 5098 ft 236 kts 20°
2026-05-06 16:15 53.37257 9.47301 5098 ft 236 kts 44°
2026-05-06 16:15 53.38189 9.49516 5100 ft 236 kts 68°
2026-05-06 16:15 53.39014 9.51833 5086 ft 236 kts 46°
2026-05-06 16:16 53.40260 9.53558 5113 ft 236 kts 40°
2026-05-06 16:16 53.41409 9.55425 5086 ft 235 kts 51°
2026-05-06 16:16 53.42420 9.57469 5095 ft 236 kts 50°
2026-05-06 16:16 53.43405 9.59441 5148 ft 213 kts 50°
2026-05-06 16:17 53.44348 9.61327 5165 ft 210 kts 50°
2026-05-06 16:17 53.45283 9.63193 5137 ft 214 kts 50°
2026-05-06 16:17 53.46247 9.65116 4892 ft 215 kts 50°
2026-05-06 16:17 53.47200 9.67017 4620 ft 213 kts 50°
2026-05-06 16:18 53.48114 9.68841 4350 ft 212 kts 50°
2026-05-06 16:18 53.49034 9.70679 4075 ft 211 kts 50°
2026-05-06 16:18 53.49869 9.72346 3824 ft 210 kts 50°
2026-05-06 16:18 53.50810 9.74228 3538 ft 209 kts 50°
2026-05-06 16:19 53.51733 9.76075 3255 ft 208 kts 50°
2026-05-06 16:19 53.52654 9.77920 2972 ft 207 kts 50°
2026-05-06 16:19 53.53577 9.79770 2687 ft 207 kts 50°
2026-05-06 16:19 53.54424 9.81468 2425 ft 206 kts 50°
2026-05-06 16:20 53.56247 9.85130 1861 ft 204 kts 50°
2026-05-06 16:20 53.57145 9.86936 1582 ft 196 kts 50°
2026-05-06 16:20 53.57950 9.88555 1291 ft 168 kts 50°
2026-05-06 16:21 53.58653 9.89971 1007 ft 148 kts 50°
2026-05-06 16:21 53.59269 9.91212 816 ft 137 kts 50°
2026-05-06 16:21 53.59885 9.92456 709 ft 143 kts 50°
2026-05-06 16:21 53.60538 9.93773 543 ft 146 kts 50°
2026-05-06 16:22 53.61180 9.95068 364 ft 144 kts 50°
2026-05-06 16:22 53.61816 9.96348 170 ft 142 kts 50°
2026-05-06 16:22 53.62429 9.97600 63 ft 133 kts 50°
2026-05-06 16:22 53.62893 9.98535 61 ft 69 kts 50°
2026-05-06 16:23 53.63083 9.98923 61 ft 33 kts 51°
2026-05-06 16:23 53.63227 9.99213 61 ft 31 kts 51°
2026-05-06 16:23 53.63305 9.99443 61 ft 10 kts 108°
2026-05-06 16:23 53.63289 9.99551 61 ft 11 kts 102°
2026-05-06 16:24 53.63269 9.99705 61 ft 13 kts 121°
2026-05-06 16:24 53.63211 9.99775 61 ft 8 kts 153°
2026-05-06 16:24 53.63165 9.99813 61 ft 1 kts 154°
2026-05-06 16:24 53.63157 9.99819 61 ft 0 kts 154°
2026-05-06 16:25 53.63126 9.99846 61 ft 12 kts 153°
2026-05-06 16:25 53.63076 9.99888 61 ft 0 kts 154°
2026-05-06 16:26 53.63062 9.99901 61 ft 5 kts 152°
2026-05-06 16:26 53.63030 9.99929 61 ft 1 kts 153°
2026-05-06 16:26 53.63020 9.99938 61 ft 0 kts 153°
2026-05-06 16:28 53.63005 9.99951 61 ft 6 kts 153°
2026-05-06 16:28 53.62958 10.00001 61 ft 8 kts 121°
2026-05-06 16:28 53.62981 10.00085 61 ft 8 kts 34°
2026-05-06 16:28 53.63015 10.00153 61 ft 4 kts 109°
2026-05-06 16:29 53.62998 10.00197 61 ft 6 kts 120°
2026-05-06 16:29 53.62975 10.00266 61 ft 5 kts 120°
2026-05-06 16:29 53.62972 10.00273 61 ft 0 kts 120°